Regional Weather Roundup
Issued by NWS Sioux Falls, SD

Home | Current Version | Previous Version | Text Only | Print | Product List | Glossary On
Versions: 1 2 3 4 5 6 7 8 9 10 11 12 13 14 15 16 17 18 19 20 21 22 23 24 25 26 27 28 29 30 31 32 33 34 35 36 37 38 39 40 41 42 43 44 45 46 47 48 49 50
000
ASUS43 KFSD 050710
RWRFSD

WEATHER ROUNDUP FOR SE SOUTH DAKOTA/SW MINNESOTA/NW IOWA
NATIONAL WEATHER SERVICE SIOUX FALLS SD
100 AM CST THU MAR 05 2015

NOTE: "FAIR" INDICATES FEW OR NO CLOUDS BELOW 12,000 FEET WITH NO
SIGNIFICANT WEATHER AND OR OBSTRUCTIONS TO VISIBILITY.


SDZ038>040-050-052>070-050800-
SOUTHEAST SOUTH DAKOTA

CITY           SKY/WX    TMP DP  RH WIND       PRES   REMARKS
CHAMBERLAIN    PTCLDY    -6 -11  79 SE6       30.41F WCI -19
HURON          CLEAR     -9 -14  78 CALM      30.46F
MADISON        FAIR      -8 -11  84 W3        30.40F
MITCHELL         N/A     -3  -8  79 CALM      30.48F
SIOUX FALLS    CLEAR     -6 -11  79 NW3       30.44S
WINNER         FAIR       3  -9  57 S6        30.37F WCI  -8
YANKTON        CLEAR     -2 -11  65 NW5       30.47S WCI -12
$$

MNZ071-072-080-081-089-090-097-098-050800-
SOUTHWEST MINNESOTA

CITY           SKY/WX    TMP DP  RH WIND       PRES   REMARKS
FAIRMONT       CLEAR     -2 -11  65 NW7       30.41R WCI -16
JACKSON        CLEAR     -4 -13  65 NW7       30.41S WCI -18
LUVERNE        CLEAR     -6 -11  77 NW6       30.44S WCI -18
MARSHALL       CLEAR     -6 -15  65 NW7       30.45F WCI -20
MONTEVIDEO     CLEAR     -8 -11  84 NW6       30.47F WCI -21
PIPESTONE      CLEAR     -8 -11  84 NW6       30.39S WCI -21
REDWOOD FALLS  CLEAR     -5 -12  72 W8        30.45F WCI -20
TRACY          CLEAR     -5 -13  70 W6        30.43F WCI -18
WINDOM         CLEAR     -6 -11  77 W10       30.41S WCI -23
WORTHINGTON    CLEAR     -6 -15  65 NW7       30.41S WCI -20
$$

IAZ001>003-012>014-020>022-031-032-NEZ013-014-SDZ071-050800-
NORTHWEST IOWA

CITY           SKY/WX    TMP DP  RH WIND       PRES   REMARKS
CHEROKEE       CLEAR     -2  -8  75 CALM      30.46S
DENISON        CLEAR      0  -8  71 CALM      30.44S
ESTHERVILLE    CLEAR     -4 -10  75 NW8       30.42R WCI -19
LE MARS        CLEAR     -2  -6  84 N5        30.47S WCI -12
ORANGE CITY    CLEAR      1  -8  66 CALM      30.43S
SHELDON        CLEAR     -6 -13  71 NW3       30.42S
SIOUX CITY     CLEAR      2  -6  69 CALM      30.48S
SPENCER        CLEAR     -5 -11  75 NW3       30.43S
STORM LAKE     CLEAR     -2 -11  65 NW5       30.43S WCI -12
$$

ABBREVIATIONS USED IN REMARKS
   TC - TEMPERATURE IN CELSIUS
  WCI - WIND CHILL INDEX
   HX - HEAT INDEX
  VSB - VISIBILITY



USA.gov is the U.S. government's official web portal to all federal, state and local government web resources and services.